GFSSE_2pvu_pres_024.txt.gz
Presure
103 148 151 127 154 137 129 120 131 125 122 126 168 164 135 125 129 120 165 123 155 183 166 144 140 127 302 310 322 313 248 325 297 292 275 276 285 262 272 238 211 244 217
130 132 150 153 120 109 123 125 124 149 115 147 128 134 130 149 125 192 159 129 144 153 176 177 204 267 271 264 310 303 294 294 311 313 286 297 270 261 274 267 244 270 241
138 110 118 141 115 109 137 141 134 112 118 140 137 152 114 120 143 171 153 146 180 159 177 205 257 246 236 240 249 224 285 287 283 277 290 299 287 270 273 277 227 238 241
148 160 131 129 114 134 137 119 113 116 149 138 156 111 124 141 152 201 168 154 170 192 190 237 229 237 213 214 229 229 237 243 274 270 280 287 288 285 241 246 245 230 226
103 118 132 110 138 117 114 160 124 174 120 157 124 121 158 157 166 161 167 176 174 187 222 231 215 218 203 217 197 204 211 221 239 247 269 291 302 290 280 242 245 232 221
115 153 103 110 150 131 140 149 153 144 123 119 170 166 156 160 167 165 165 178 211 224 221 222 207 206 210 196 191 207 198 215 223 211 247 267 280 284 273 263 226 226 223
152 118 111 155 149 148 119 136 152 125 140 130 152 130 155 168 174 165 165 170 224 228 214 217 204 196 192 189 186 197 190 188 189 204 208 238 258 273 288 248 285 202 223
112 117 125 120 146 126 163 131 143 147 118 164 149 159 170 167 162 163 167 211 224 224 222 213 197 203 205 202 189 187 182 182 190 194 200 214 229 253 265 236 296 263 255
117 150 132 112 120 171 124 146 126 117 158 138 156 165 158 182 186 178 219 209 214 214 212 200 196 197 193 186 172 164 191 169 166 168 183 178 218 227 258 251 281 283 251
166 124 117 162 135 126 166 125 155 133 156 168 163 159 172 178 174 227 223 217 203 206 208 195 200 193 192 192 202 192 187 174 189 164 194 185 192 203 222 241 252 273 240
135 126 151 152 166 120 174 133 171 151 171 157 179 196 190 177 167 170 208 202 206 207 208 201 196 192 194 170 167 168 171 202 193 179 177 186 184 188 186 216 223 266 213
178 163 153 135 151 127 154 170 161 153 164 189 172 202 169 183 213 215 190 206 212 207 203 205 199 192 187 174 180 192 197 188 199 194 191 172 188 196 181 184 211 219 245
174 183 177 170 126 163 168 161 173 175 186 176 184 163 200 196 209 217 202 227 217 212 207 201 199 205 198 205 200 197 192 192 186 188 191 193 180 177 173 189 181 195 218
178 173 167 128 172 167 162 172 159 172 173 199 199 190 212 205 195 192 218 214 206 206 204 207 202 200 192 181 181 193 184 170 184 190 190 184 183 192 186 177 185 179 195
139 125 182 172 171 161 165 157 176 199 209 183 225 219 207 210 207 217 212 209 194 175 189 189 174 194 190 187 182 184 187 218 190 174 208 221 226 234 202 183 166 190 186
176 172 163 180 172 166 176 198 197 206 191 236 218 209 202 202 216 216 197 187 184 178 183 184 186 188 180 171 174 174 172 203 206 203 209 208 207 207 218 225 220 163 181
176 179 179 172 187 177 188 211 218 199 215 202 204 214 209 215 215 194 190 199 181 196 195 197 186 185 189 172 188 147 208 194 208 202 202 208 203 199 201 205 209 225 196
241 197 186 217 206 215 209 195 225 222 218 214 206 194 221 196 194 192 197 184 193 192 193 193 188 185 179 177 195 193 192 197 189 197 195 195 195 195 195 196 202 202 215
184 209 209 222 212 196 205 232 234 214 204 192 198 216 199 194 184 185 182 189 189 183 185 188 188 188 175 183 203 185 191 129 195 193 196 191 125 126 195 197 215 198 200
170 230 230 214 207 215 213 216 210 205 194 204 206 202 202 191 183 184 187 190 184 162 119 165 185 184 124 182 186 184 191 188 175 178 189 195 193 193 195 195 210 204 218
224 206 218 201 205 215 209 211 191 201 201 206 207 206 175 185 190 190 194 193 184 184 165 157 186 199 184 188 194 194 191 188 192 190 191 198 200 198 204 205 199 213 201
218 211 209 219 220 221 211 197 192 201 201 204 190 182 185 187 197 198 193 193 132 189 188 199 200 201 193 194 193 189 191 197 205 205 176 184 209 208 210 213 207 213 217
203 214 213 208 212 200 198 195 200 200 195 192 193 192 200 195 196 202 197 163 194 198 205 197 199 200 196 203 206 211 209 219 220 209 146 173 218 219 226 226 223 225 228
204 206 203 199 194 194 199 201 196 193 191 189 200 195 199 197 193 198 199 208 209 200 202 202 203 207 221 230 228 219 219 228 232 243 231 224 225 227 232 240 236 233 230
204 199 192 194 195 192 189 197 194 192 192 186 200 185 191 148 191 204 206 204 203 197 205 212 217 221 225 231 227 229 230 245 258 264 278 299 260 269 261 263 258 254 243
193 200 202 193 188 195 187 188 193 187 192 189 186 158 95 133 193 200 197 198 206 207 213 217 220 227 239 256 259 255 267 278 322 329 317 332 388 377 384 385 380 343 304

GFSSE_2pvu_pres_027.txt.gz
Presure
119 165 143 98 117 129 119 180 112 110 127 123 120 144 111 144 125 138 152 114 114 129 141 169 158 181 154 142 150 249 260 258 315 306 314 292 288 278 272 263 275 262 258
125 126 109 119 104 126 133 143 138 127 145 151 141 141 135 141 118 141 121 126 150 142 175 203 153 197 179 218 242 233 239 234 224 223 296 301 302 277 275 282 257 257 256
145 132 117 132 131 116 136 138 112 144 116 124 142 136 143 150 140 147 127 136 199 142 170 173 191 178 180 249 227 225 218 223 213 217 228 259 287 308 276 279 273 265 256
122 125 129 122 110 117 129 139 144 127 117 150 115 151 124 135 114 151 167 179 157 178 158 170 188 182 183 218 216 207 216 207 212 207 206 227 221 303 300 267 275 264 242
153 124 122 139 114 127 138 137 127 125 165 159 142 156 132 121 116 154 169 153 136 163 192 177 172 230 235 219 212 202 204 201 195 195 201 204 198 288 285 287 295 268 265
131 120 169 126 139 113 134 124 123 152 166 162 121 132 122 111 130 126 170 131 195 185 184 164 185 219 196 214 207 210 207 200 189 190 180 184 187 193 261 286 262 291 276
118 123 123 134 178 188 115 126 113 119 143 168 127 121 148 158 171 170 151 179 167 187 192 175 215 199 211 216 202 200 194 191 185 183 171 191 194 186 184 252 300 252 285
174 175 179 179 156 111 161 131 119 119 128 173 125 133 122 152 168 200 173 185 191 195 195 197 206 204 216 208 206 203 201 189 183 187 192 194 193 192 182 227 237 270 291
173 175 182 181 111 127 187 146 133 145 170 151 128 164 148 174 195 170 186 180 219 192 206 209 195 214 217 215 207 203 194 198 196 193 185 184 189 183 198 197 208 233 293
135 123 124 121 153 137 125 121 154 173 181 128 161 188 181 123 174 194 185 224 184 218 205 201 214 218 212 207 210 208 203 194 175 167 174 205 175 195 190 188 198 191 231
120 173 173 155 181 180 138 173 163 128 175 134 180 178 171 184 140 174 213 212 214 215 222 202 220 219 216 210 206 200 219 210 211 204 198 202 197 200 193 187 194 187 209
120 155 174 115 157 171 175 176 165 154 181 186 170 190 191 179 174 225 186 222 208 203 205 218 216 215 216 210 207 213 207 196 193 192 189 193 193 185 191 195 189 193 186
135 129 116 169 173 178 134 126 170 191 174 170 171 175 171 181 180 197 206 181 211 201 204 212 205 190 184 185 187 187 184 183 191 190 186 186 196 212 192 193 187 186 184
164 133 182 173 171 125 176 163 178 181 185 136 176 179 194 233 218 207 230 213 207 208 209 203 190 186 191 190 194 194 192 192 183 176 179 179 182 207 212 217 216 188 187
144 180 174 183 180 203 202 196 184 178 142 204 230 192 205 213 220 199 213 202 211 205 206 189 185 192 183 190 193 196 182 191 189 179 178 187 202 180 210 202 207 212 205
187 174 191 177 177 196 176 185 156 236 221 207 201 204 210 197 211 211 199 211 201 209 189 194 190 181 183 180 176 180 180 181 181 182 167 150 197 198 202 211 202 210 201
172 187 185 191 199 242 236 164 242 179 214 196 195 194 213 211 205 204 194 192 212 203 197 183 180 183 183 184 181 183 191 185 182 182 188 204 199 173 192 195 202 199 205
211 200 202 203 192 220 239 219 237 206 206 193 215 227 228 221 207 195 196 198 209 203 194 187 188 189 191 193 182 188 183 184 171 189 200 195 193 164 195 195 202 202 202
206 209 193 196 172 220 221 207 202 212 223 213 205 216 209 205 191 202 197 201 202 182 188 186 191 193 189 187 187 180 172 186 191 154 181 189 191 194 194 192 192 197 157
236 230 240 220 209 203 204 211 205 211 205 210 220 214 203 196 197 196 202 194 190 184 190 193 186 189 192 196 191 187 185 190 193 193 194 200 200 195 194 196 193 193 192
225 215 214 203 204 205 204 207 204 205 213 224 217 194 194 196 202 199 193 194 194 197 196 194 191 190 190 196 203 202 200 188 192 193 191 193 193 197 197 187 190 194 194
216 213 210 212 214 216 211 204 207 202 199 197 192 195 197 200 197 196 193 191 199 198 192 192 195 200 199 194 195 194 192 193 193 190 194 195 195 195 201 206 204 174 183
220 228 216 211 209 208 205 202 199 194 196 195 194 201 193 203 206 192 185 193 196 196 199 200 209 209 206 209 211 210 212 210 206 205 206 205 205 208 210 213 219 175 213
217 217 214 210 205 198 193 194 195 200 198 195 196 194 207 194 190 194 193 194 201 201 206 210 207 213 216 219 230 236 240 241 245 241 237 237 242 249 250 248 235 229 227
234 221 201 209 206 212 189 193 196 200 198 198 204 183 196 198 196 196 194 201 200 208 204 203 206 226 230 228 244 248 244 254 260 277 268 254 241 244 253 261 267 268 272
230 217 217 204 189 191 196 195 197 200 198 195 186 191 190 191 184 130 147 167 205 194 203 208 220 233 245 258 262 280 285 285 305 285 342 344 364 364 356 355 347 355 306

GFSSE_2pvu_pres_030.txt.gz
Presure
133 118 95 139 128 131 131 104 129 120 150 118 128 129 153 136 123 151 115 148 127 113 121 139 134 118 157 150 134 169 227 169 235 248 247 237 243 234 253 291 299 300 297
103 118 103 104 132 157 111 118 127 139 120 123 125 129 142 117 140 116 147 135 118 124 135 133 180 182 134 190 133 159 211 230 231 231 229 225 226 224 231 231 288 291 294
123 171 137 129 109 117 145 124 123 147 124 134 121 149 141 113 148 141 141 124 133 121 184 126 139 145 170 186 218 228 227 226 229 220 218 218 207 210 225 208 231 287 278
170 121 177 117 143 145 112 131 124 130 131 133 143 148 117 191 121 141 123 125 160 114 182 165 158 118 160 203 200 225 218 227 218 215 210 212 204 206 201 198 209 226 288
118 137 156 121 118 162 148 133 165 124 130 138 157 127 126 193 126 142 146 120 131 181 175 195 180 173 149 214 229 227 218 220 218 204 207 209 205 202 195 199 196 220 310
159 125 172 123 169 181 173 183 126 177 147 142 149 120 183 118 167 142 146 123 196 185 210 199 177 220 220 224 225 219 225 222 218 207 208 202 193 189 184 173 194 215 253
172 181 159 179 171 184 190 149 185 179 134 128 175 169 123 187 170 155 125 192 189 179 176 185 178 193 220 223 213 223 226 223 217 216 209 208 195 189 188 208 208 184 216
166 160 111 132 144 184 190 180 163 127 161 129 157 175 143 149 158 127 181 191 191 172 188 193 234 210 225 213 219 229 228 218 213 217 209 200 220 199 190 156 194 198 192
162 122 119 117 128 165 124 120 171 181 128 129 183 183 180 140 178 189 204 187 189 192 207 183 210 226 197 213 225 232 228 226 222 209 228 220 205 181 159 192 192 200 202
190 182 172 122 127 165 178 183 170 162 123 177 182 175 130 189 185 194 187 189 144 206 196 193 223 218 205 217 224 217 217 198 216 221 213 208 208 207 199 185 191 202 201
180 127 125 144 122 118 138 146 119 126 145 176 160 180 178 180 193 195 191 158 216 232 223 200 222 209 221 202 220 205 193 196 195 197 193 184 198 191 185 195 182 195 192
144 133 123 127 112 154 156 131 151 145 175 175 186 185 181 178 178 180 238 213 210 203 214 206 222 204 214 210 213 193 192 182 199 195 197 198 199 194 185 184 185 184 214
181 176 180 119 177 175 168 136 155 186 177 180 181 179 189 166 197 225 218 208 199 233 226 201 210 212 193 216 203 194 187 184 188 183 191 198 185 185 175 178 181 187 188
120 195 134 170 134 141 169 185 183 176 179 184 174 195 137 230 200 235 229 205 215 219 212 203 214 194 200 210 194 179 182 183 184 184 178 182 184 189 187 175 185 190 187
159 126 187 182 182 201 181 181 173 178 199 199 213 203 198 215 230 204 204 210 204 223 223 217 194 192 197 208 196 194 183 184 187 188 193 182 191 193 186 189 184 198 219
196 194 188 172 189 187 191 193 191 205 202 137 192 184 229 240 211 207 199 212 219 212 200 193 189 194 197 203 203 188 184 185 192 193 199 186 191 191 192 192 122 201 208
190 188 198 210 219 208 189 194 194 195 235 250 243 238 225 226 205 207 201 205 209 203 195 187 196 194 200 185 184 184 189 192 192 191 189 193 195 190 191 121 190 201 202
213 211 217 197 198 200 210 202 211 230 228 222 232 209 209 213 207 205 207 213 201 194 193 195 200 197 189 189 190 192 194 195 185 150 185 188 190 189 193 194 199 196 196
207 204 198 201 218 203 195 225 223 234 228 215 213 213 212 203 199 210 204 193 195 191 199 198 193 195 191 188 196 194 185 187 187 188 192 194 193 194 195 197 195 196 204
204 203 252 235 224 210 226 231 221 228 202 205 204 209 203 199 198 195 196 196 191 193 185 188 196 186 179 187 184 187 191 191 190 190 193 194 193 193 191 194 195 193 195
229 233 257 248 222 216 215 208 202 202 205 210 203 197 203 196 193 192 199 193 194 188 195 195 189 189 188 158 109 187 193 195 196 194 193 192 196 203 203 201 196 192 192
260 243 227 216 210 204 210 207 207 213 213 212 203 196 190 186 197 197 193 191 192 193 188 194 181 184 189 191 194 194 194 194 188 193 195 201 208 210 212 207 205 205 202
198 214 211 213 213 214 213 212 212 202 201 203 201 187 190 192 195 196 199 195 184 177 188 188 191 188 195 200 204 207 209 211 214 212 210 218 224 225 230 229 229 229 214
220 217 219 215 214 213 213 217 210 205 205 203 189 193 191 192 196 205 186 175 195 191 192 199 195 202 206 213 217 216 216 218 226 234 251 239 238 245 242 247 257 254 251
241 236 231 226 222 219 214 198 196 192 192 195 199 203 208 209 196 190 200 206 192 199 197 202 207 207 211 216 218 224 229 252 243 276 284 282 287 284 275 279 273 275 279
209 205 193 193 189 192 193 198 202 202 205 212 215 186 202 195 197 210 193 194 194 196 194 205 209 218 214 217 271 274 282 287 288 296 300 337 395 516 523 512 502 463 431

GFSSE_2pvu_pres_033.txt.gz
Presure
148 111 120 167 175 121 130 99 116 157 131 118 104 141 101 136 123 121 103 133 126 119 122 137 128 135 129 112 117 157 171 131 171 176 213 238 201 241 181 215 233 229 237
150 116 116 160 104 169 169 120 162 126 149 160 134 121 119 122 125 144 104 145 127 108 115 161 133 127 123 126 125 202 190 145 238 135 189 241 242 231 231 233 224 220 237
126 110 102 123 153 131 179 184 180 111 175 169 125 163 129 146 111 148 119 157 124 135 122 176 195 127 142 185 192 186 187 219 236 237 190 232 232 238 228 230 220 224 204
165 117 172 108 126 113 140 170 142 160 122 157 147 164 190 164 183 113 191 143 140 117 163 186 182 168 124 136 187 206 188 179 245 197 230 228 225 216 212 212 218 214 200
139 133 128 132 152 185 164 174 173 128 168 186 195 196 175 189 139 182 144 129 119 180 133 167 144 133 191 186 218 217 150 211 210 231 239 232 226 223 209 223 203 194 182
143 164 180 180 180 150 184 167 160 176 126 192 203 186 180 128 191 194 167 123 187 199 187 126 184 203 190 207 190 217 232 226 224 233 236 236 225 220 213 218 214 201 178
130 171 158 176 164 189 126 158 127 120 133 144 144 138 164 152 159 119 154 182 201 174 143 193 183 214 181 209 204 199 225 216 229 236 238 239 229 226 217 205 216 212 204
173 158 119 160 181 126 126 139 178 163 132 155 184 125 187 176 123 134 146 186 154 131 184 196 165 221 181 174 221 179 219 235 220 228 227 227 223 225 217 218 209 201 180
139 171 174 176 177 187 130 199 198 128 133 166 119 174 171 138 138 144 171 183 168 200 201 198 236 147 214 206 221 222 209 219 225 222 196 205 208 208 210 209 210 208 204
121 122 178 119 128 144 185 159 103 127 125 141 131 135 136 162 145 181 143 182 182 194 213 134 211 223 207 225 216 222 215 213 220 214 201 190 204 203 197 176 195 195 144
111 188 177 125 148 181 160 125 127 168 180 150 134 181 163 174 177 187 187 180 205 208 153 204 249 207 186 214 211 205 214 201 228 214 205 186 193 194 200 201 194 194 194
123 192 180 185 150 114 156 180 184 183 184 131 153 178 197 182 192 208 194 209 201 177 215 249 206 210 236 233 227 221 205 203 223 208 198 185 185 189 185 190 193 185 183
186 127 126 137 178 185 188 137 127 141 185 180 188 206 174 180 205 207 209 212 213 226 240 211 212 206 216 210 217 205 196 196 201 210 199 192 186 188 192 183 182 190 195
205 203 197 179 196 134 190 170 182 184 181 195 200 191 200 197 208 205 205 218 227 210 212 206 218 209 230 211 211 202 198 200 199 200 197 185 185 191 196 194 200 189 190
190 189 186 189 183 201 198 187 195 193 180 203 205 212 203 198 201 213 226 216 222 206 215 214 211 219 217 204 196 198 202 202 193 185 188 189 192 193 193 195 191 186 188
207 204 203 185 205 200 187 171 186 194 199 214 188 158 225 205 214 212 231 210 210 219 207 208 207 204 205 199 196 195 196 195 193 194 190 188 193 196 197 190 196 198 196
209 217 208 199 196 193 197 208 196 194 203 206 203 254 222 231 241 223 212 208 213 208 211 207 193 195 194 190 192 192 190 194 200 182 185 189 184 183 185 185 185 187 190
197 220 213 200 200 200 200 193 191 202 213 241 236 222 245 221 214 213 217 209 202 206 199 193 190 195 195 193 191 187 192 190 190 187 186 189 187 190 152 131 193 192 191
205 201 198 202 194 195 191 210 223 230 220 234 225 207 207 210 209 210 207 210 203 198 188 189 194 194 193 194 192 190 183 188 181 183 187 184 186 188 190 193 196 199 202
206 201 201 202 204 224 155 206 192 219 210 212 207 214 209 207 208 205 204 205 204 188 190 191 193 196 199 198 182 182 183 183 183 189 178 187 192 194 192 194 192 193 196
213 236 240 231 253 189 228 230 218 222 216 202 204 211 213 213 212 207 204 198 194 194 197 192 196 200 204 183 181 190 189 187 191 180 190 188 194 195 196 196 197 196 192
223 223 193 212 215 211 204 205 203 205 208 212 217 217 214 207 194 195 195 195 196 197 200 204 209 193 187 187 192 192 179 186 186 181 194 200 199 201 205 204 206 205 205
223 218 212 216 179 222 221 222 223 225 229 208 204 192 191 195 197 199 201 203 206 187 177 193 193 193 199 204 187 191 198 196 202 197 207 213 217 221 224 224 221 218 219
241 241 240 229 212 207 202 202 203 197 195 195 198 204 207 206 207 210 206 202 200 202 209 205 205 196 194 206 206 210 213 215 223 220 227 237 229 230 238 254 268 276 271
206 204 203 203 204 203 197 211 214 216 214 215 212 208 201 199 207 211 208 208 207 207 207 207 206 205 207 208 215 218 220 230 239 255 301 325 321 332 392 363 303 287 292
201 203 209 196 203 206 205 206 203 200 200 202 200 201 201 201 202 211 209 207 205 202 203 203 208 207 213 228 243 252 278 285 283 297 333 335 401 512 526 510 502 520 527

GFSSE_2pvu_pres_036.txt.gz
Presure
110 119 136 111 138 159 112 151 102 167 140 118 110 127 165 174 151 172 144 115 116 153 122 131 112 120 126 148 108 111 145 161 222 155 124 123 143 204 171 241 165 129 247
111 127 134 139 88 148 101 116 101 103 112 184 181 168 174 171 122 181 179 145 191 198 111 201 103 152 123 122 113 110 181 197 253 125 131 157 230 230 175 138 229 201 238
133 131 126 147 118 140 109 97 116 121 155 144 120 164 170 178 138 126 133 179 194 187 195 108 124 138 157 124 125 189 150 147 212 125 146 221 242 205 238 228 231 227 225
89 126 113 151 152 157 142 149 124 151 185 183 162 177 179 175 165 162 182 178 201 123 144 190 125 163 121 193 193 196 217 125 227 233 217 236 228 229 226 244 239 235 221
139 159 158 155 163 165 135 126 177 173 178 166 150 170 174 135 121 108 201 124 118 148 137 181 118 191 197 195 191 146 186 227 220 225 215 216 211 245 237 240 229 236 225
137 143 151 173 177 168 125 169 183 121 171 173 184 126 134 173 179 131 125 155 180 192 113 118 190 143 138 204 128 225 204 218 215 226 136 228 217 231 235 246 225 235 219
141 157 154 164 174 188 184 186 187 184 188 173 183 173 191 151 124 193 122 162 116 135 197 133 173 151 205 144 199 212 230 216 223 173 220 226 229 226 207 230 226 228 221
154 163 140 194 175 182 179 149 157 186 175 173 189 143 119 168 172 154 144 137 127 164 138 196 196 194 199 208 209 216 229 213 184 217 218 220 219 217 201 206 215 217 224
136 178 193 188 178 140 122 120 170 167 187 151 149 189 174 188 133 186 121 126 160 147 201 191 189 201 202 204 219 250 200 211 217 213 220 207 226 220 202 197 204 206 196
187 181 191 167 104 125 120 128 129 188 126 202 127 120 119 164 124 121 126 128 193 179 190 187 207 210 201 224 231 214 208 229 223 236 229 205 214 224 203 185 193 196 205
186 146 105 127 139 127 123 179 134 197 178 177 208 189 190 127 180 185 195 204 188 194 209 224 196 194 223 225 190 211 211 210 207 232 210 204 205 216 201 183 190 194 191
197 187 154 129 126 123 127 125 166 146 130 135 158 189 165 189 196 196 185 188 192 180 222 197 222 220 227 230 217 217 215 195 213 211 202 200 206 202 212 201 183 191 187
155 147 126 177 181 181 176 197 176 197 134 178 201 174 198 187 204 178 189 199 183 198 218 178 218 223 229 208 218 209 214 223 208 205 196 195 199 202 201 180 184 186 189
167 193 194 191 194 194 184 192 194 172 184 195 173 199 185 202 199 201 194 202 204 244 212 231 236 205 206 216 209 197 208 207 207 197 187 193 193 199 192 191 192 192 192
203 196 196 193 188 197 208 195 188 192 194 188 194 188 195 207 200 200 201 245 238 251 222 218 205 203 211 210 208 207 201 199 198 195 194 195 192 192 193 194 190 186 195
154 195 201 201 200 189 196 206 201 209 211 207 201 205 206 199 203 208 245 227 213 207 217 211 225 211 216 204 205 202 196 205 201 201 198 196 189 197 193 188 186 192 194
120 129 125 218 197 195 198 211 209 198 202 207 205 202 195 177 232 251 232 225 234 228 223 226 218 209 206 211 210 192 192 194 195 197 198 199 199 186 201 178 175 175 183
142 218 213 208 207 202 202 199 195 192 191 198 205 210 235 227 218 214 206 222 216 213 219 217 218 215 210 204 195 194 196 193 193 196 197 196 192 185 192 188 182 182 183
206 203 198 200 198 195 197 195 211 212 220 215 228 201 210 216 205 213 218 207 210 222 213 203 195 197 199 198 198 201 199 200 206 207 203 192 184 184 190 191 192 190 195
209 204 198 200 208 200 197 212 215 234 195 199 209 211 201 206 213 207 212 220 205 193 193 200 203 205 205 206 209 208 197 187 191 197 194 192 189 189 194 195 183 185 150
205 204 248 200 204 219 236 239 193 134 206 199 201 209 216 213 195 196 197 196 201 207 212 211 204 200 200 203 201 199 194 195 197 200 202 197 202 204 203 202 187 181 189
225 223 222 223 210 211 236 215 210 205 219 233 217 217 197 201 202 206 207 210 208 194 195 202 204 203 204 204 204 206 207 207 209 205 201 201 199 196 195 194 200 199 199
220 220 217 230 222 229 223 219 212 202 196 198 201 205 211 208 201 196 195 199 195 195 195 196 197 201 205 208 206 206 202 207 203 203 202 203 205 208 211 209 209 210 213
235 227 219 213 207 203 198 199 202 200 194 199 202 201 203 203 196 191 190 190 195 199 200 204 206 204 203 205 217 212 212 249 235 230 217 239 241 239 241 244 253 262 268
205 202 201 203 205 202 193 194 199 203 201 193 191 196 210 235 241 238 226 215 201 198 197 200 206 204 208 211 215 219 218 265 254 255 283 313 287 275 368 382 506 503 520
206 210 205 197 201 202 200 196 204 216 237 241 241 238 231 208 200 199 195 193 187 196 197 198 207 212 233 229 266 258 259 255 278 294 332 371 368 479 459 450 448 458 453

GFSSE_2pvu_pres_042.txt.gz
Presure
112 128 124 123 119 133 107 126 110 96 135 123 101 118 129 123 161 170 132 139 155 131 123 138 126 181 122 141 165 160 158 193 215 188 211 163 152 177 125 116 197 123 122
102 114 131 110 112 127 134 131 113 102 135 128 142 99 132 122 112 98 160 130 170 117 159 118 163 167 188 187 184 190 152 125 201 129 131 122 198 174 129 190 226 136 161
138 120 117 132 128 127 125 120 105 141 130 117 132 141 145 142 147 153 156 160 140 123 130 166 190 180 161 122 119 133 164 212 125 121 139 126 132 141 120 116 235 155 215
119 109 132 132 119 139 136 127 130 128 125 138 132 137 147 160 190 180 164 150 166 144 182 170 127 186 205 189 163 171 149 134 124 122 116 118 133 133 129 188 198 248 225
129 146 103 116 111 144 125 128 107 139 135 130 143 136 140 145 167 162 190 191 152 191 183 187 121 150 204 203 129 150 162 125 171 175 153 126 128 145 147 247 246 239 218
136 127 122 143 126 112 102 122 113 117 131 142 145 147 136 154 180 197 189 159 196 199 130 124 117 215 163 105 121 174 213 125 127 207 127 208 195 218 229 238 224 228 233
125 109 133 118 123 129 141 135 134 136 143 144 147 149 156 133 173 228 211 185 184 119 117 175 189 207 184 198 125 144 127 181 182 176 189 208 208 228 236 232 217 227 243
143 126 136 156 135 125 132 136 134 142 141 146 160 161 137 206 206 191 189 121 124 124 125 124 156 192 126 190 158 189 190 187 199 200 204 219 229 225 202 229 218 221 249
123 125 141 137 126 121 125 141 135 143 146 148 137 177 181 186 176 190 136 155 128 203 191 197 189 198 181 187 189 191 186 192 198 227 198 230 220 243 239 214 224 225 234
109 133 146 123 125 133 125 132 141 143 151 188 173 127 121 127 172 136 186 187 178 186 192 202 179 189 183 185 186 187 192 199 239 220 226 231 245 228 216 205 227 218 238
140 139 122 125 127 122 131 134 158 172 180 171 180 180 192 186 193 206 188 180 185 180 198 171 181 187 192 193 189 190 223 201 245 221 238 231 222 215 207 216 221 214 224
138 126 123 133 124 125 129 135 151 144 180 192 181 122 191 170 174 185 183 172 180 193 178 187 188 191 196 200 158 198 209 191 229 220 213 202 208 216 213 209 205 214 211
138 117 121 134 170 176 134 154 143 196 185 187 148 185 130 123 125 127 180 184 185 181 193 203 189 200 201 205 194 236 220 231 216 242 218 214 206 211 220 226 217 208 225
153 150 127 128 124 137 136 146 191 193 193 188 122 191 127 130 197 193 192 184 182 191 201 194 201 203 208 242 230 240 235 244 236 212 228 222 210 238 208 199 211 207 209
141 131 141 139 137 132 202 166 200 206 208 195 184 185 187 187 194 186 188 192 204 200 200 207 205 229 241 249 233 221 220 216 211 229 229 223 190 202 205 214 208 203 202
158 203 132 131 183 179 206 208 194 197 189 193 194 192 179 187 190 194 203 200 215 214 203 240 230 229 234 220 220 221 223 224 222 218 217 221 224 220 218 221 202 207 202
178 143 128 201 146 187 204 203 202 201 199 197 194 195 201 206 204 197 205 207 195 217 234 216 225 222 209 217 217 214 214 216 208 206 206 211 207 206 206 207 214 220 209
227 215 218 214 220 224 223 219 215 209 206 202 201 197 201 204 208 192 200 235 230 219 218 227 215 207 217 208 206 195 194 202 207 209 220 250 243 212 219 216 203 202 216
202 221 218 205 204 203 199 200 199 201 201 203 200 192 203 199 215 241 221 218 231 228 215 212 207 211 205 199 194 195 205 206 209 225 222 214 217 219 219 199 224 218 226
219 217 209 205 201 199 202 204 200 194 195 200 202 222 227 223 224 223 225 222 214 210 207 203 203 203 201 200 213 227 249 234 213 206 203 206 198 197 202 203 205 210 215
203 193 194 193 197 197 201 204 204 217 223 223 219 223 256 225 219 213 203 201 201 201 202 198 193 218 232 232 227 208 205 202 202 204 203 202 199 205 211 216 215 210 220
202 205 212 214 219 233 228 214 214 216 219 221 230 214 207 205 205 204 204 200 198 206 224 233 234 272 249 217 205 207 203 199 200 198 201 204 215 220 222 221 226 234 236
212 221 232 219 213 211 215 223 226 220 213 204 199 196 199 194 191 195 203 224 243 243 241 232 223 215 209 204 202 200 199 195 202 205 214 222 221 226 252 275 282 287 288
223 211 212 215 230 225 218 214 208 202 197 200 206 208 203 210 219 225 221 224 229 224 218 213 208 203 197 193 195 200 201 212 205 217 214 261 261 264 268 266 263 267 282
219 218 234 223 214 210 202 195 199 211 214 206 216 232 232 225 230 219 231 205 210 211 205 208 198 195 198 198 197 200 210 219 216 227 266 280 285 260 256 283 324 311 302
225 215 207 204 198 198 207 207 216 204 196 207 222 209 222 227 225 219 226 231 206 203 205 206 206 202 200 193 205 212 216 230 255 275 276 267 284 311 310 359 345 446 475

GFSSE_2pvu_pres_045.txt.gz
Presure
79 110 114 108 104 125 123 123 127 131 116 126 121 125 121 112 108 107 109 112 105 128 128 123 127 173 147 155 142 143 122 161 167 176 176 149 123 122 124 194 189 224 139
107 115 109 123 105 134 114 135 123 137 128 116 122 106 132 123 126 128 154 135 132 149 157 154 177 196 146 169 133 127 130 190 191 193 210 209 215 158 171 208 123 153 152
114 119 125 133 112 114 134 134 106 142 127 127 121 137 122 134 127 138 138 154 142 149 142 129 161 166 139 199 199 176 201 192 181 226 161 230 201 218 203 125 205 124 119
115 124 124 117 117 106 114 121 122 142 112 111 118 118 149 132 121 131 144 135 148 145 205 160 162 150 207 164 115 101 101 134 223 202 111 210 113 161 161 192 171 146 121
115 103 125 136 138 130 111 141 124 104 110 124 125 101 126 123 134 135 145 143 142 126 155 157 170 221 165 132 166 104 156 220 208 151 120 207 142 143 121 143 133 191 216
123 135 132 148 119 112 141 114 119 112 132 146 110 126 91 130 139 140 152 144 138 209 149 172 204 183 192 127 179 202 162 187 193 178 191 191 194 192 202 202 224 235 239
116 125 137 133 121 108 121 147 125 123 104 110 112 134 124 127 140 134 144 149 174 199 153 119 200 160 133 180 182 193 189 214 200 190 178 192 198 202 198 231 211 224 237
137 125 132 133 147 148 132 133 130 138 127 123 124 124 123 131 150 109 148 162 205 197 190 127 121 119 133 194 190 204 196 186 190 182 193 197 200 209 217 202 237 239 241
127 134 114 96 126 140 150 145 133 119 125 118 121 122 137 130 196 149 150 162 193 183 188 176 183 203 210 184 203 202 192 182 183 201 194 200 206 216 214 238 228 245 240
131 135 136 185 151 125 120 112 117 118 115 198 123 152 139 134 137 155 185 179 177 189 160 183 132 190 149 204 187 185 192 184 193 191 198 196 217 225 233 140 225 228 215
128 134 141 137 135 122 126 127 121 126 120 133 135 136 132 154 180 171 184 167 163 163 184 202 187 182 182 185 192 174 189 191 198 185 199 208 249 230 217 234 221 212 226
141 128 131 133 148 149 123 134 137 127 194 136 126 145 187 144 155 189 163 185 187 189 188 185 188 192 188 190 179 184 193 193 203 217 202 225 227 226 213 242 194 207 233
120 129 120 147 128 179 206 129 128 134 132 135 140 179 191 195 200 190 185 187 185 194 200 187 186 176 178 191 193 197 213 157 211 220 246 199 230 232 229 215 238 213 242
130 150 129 123 124 117 140 137 172 195 142 194 191 152 188 191 192 185 189 200 202 190 187 187 199 184 189 194 203 208 203 210 236 236 233 225 220 220 212 231 202 241 217
132 130 121 123 117 133 178 140 146 149 142 161 201 175 191 189 189 194 188 189 194 192 191 195 197 203 212 198 217 220 251 222 223 229 217 224 207 211 204 212 211 210 222
137 156 211 122 168 132 138 170 202 199 204 190 187 195 189 185 196 201 195 197 201 203 203 214 215 201 209 217 232 245 223 225 222 215 205 210 204 200 198 214 228 237 248
123 115 196 136 201 198 192 191 148 148 193 193 191 193 197 193 192 195 204 209 217 194 195 201 201 236 228 215 229 220 221 213 210 215 216 225 225 234 249 250 249 241 221
123 135 135 217 209 199 198 201 196 194 199 194 206 219 217 215 209 198 192 191 198 204 218 223 228 236 223 214 213 209 213 209 223 230 235 237 244 239 220 214 219 218 216
133 135 191 143 183 172 226 215 218 216 202 202 202 199 193 196 195 199 211 203 212 238 235 227 218 220 211 209 209 215 222 225 246 270 265 234 212 212 214 208 210 203 188
136 218 198 156 223 214 220 220 215 209 203 194 193 193 201 199 212 220 232 207 226 223 209 216 212 208 208 214 220 241 246 249 246 232 221 213 209 195 201 209 207 205 209
142 198 211 205 204 200 200 202 191 189 195 195 199 205 230 214 228 233 222 212 202 205 200 209 206 211 222 232 232 233 223 208 208 200 197 201 204 204 204 207 214 218 217
216 209 206 202 201 193 192 195 206 215 245 233 224 232 226 215 205 196 195 195 201 218 232 233 237 234 235 231 222 217 214 199 213 206 208 205 203 199 213 213 215 227 223
196 196 193 194 197 202 203 214 230 218 228 229 218 209 201 193 193 215 220 215 218 215 212 216 238 236 231 226 224 231 221 212 204 199 199 205 206 207 215 216 223 230 238
213 214 215 210 212 232 221 220 229 223 214 204 196 195 194 217 211 204 206 205 206 206 222 239 244 239 239 240 231 225 211 206 204 202 197 200 208 205 216 236 244 260 287
222 234 221 211 216 219 232 220 208 201 196 196 195 214 203 204 204 203 195 200 207 212 214 237 236 232 227 217 203 205 206 203 202 206 214 230 236 267 273 279 283 282 281
216 222 243 231 221 213 202 199 198 202 201 211 211 202 199 195 194 194 197 195 187 190 233 252 239 221 211 207 205 206 213 219 224 245 263 273 278 282 280 311 321 393 387

GFSSE_2pvu_pres_048.txt.gz
Presure
115 90 92 110 93 97 110 114 122 132 109 135 102 98 126 120 129 113 125 133 127 123 126 121 131 144 136 137 139 147 148 158 163 188 200 210 122 182 140 188 224 212 223
113 128 130 94 114 115 112 124 122 114 139 128 107 106 122 139 123 118 122 125 145 159 142 134 131 141 130 134 139 146 173 150 163 236 216 125 199 174 115 233 227 211 207
119 117 97 124 122 129 128 119 110 110 130 135 131 140 132 111 106 127 133 109 127 129 119 141 126 142 144 139 144 121 180 150 232 140 120 103 106 109 117 228 206 200 206
122 115 128 127 116 112 126 123 134 124 140 122 116 111 122 110 121 119 115 121 128 123 125 134 135 147 138 161 143 191 189 147 176 107 162 138 134 194 150 132 209 136 168
120 112 121 124 139 109 133 128 135 134 108 124 95 139 137 121 113 145 122 146 131 130 124 130 139 153 142 152 154 204 192 203 192 131 209 208 195 210 201 188 194 127 127
129 125 102 131 121 126 150 139 148 108 106 140 143 108 134 106 107 122 112 108 105 128 124 153 118 168 152 154 165 193 196 124 122 119 181 206 189 199 203 192 190 195 163
115 128 134 137 129 143 129 108 131 152 141 135 139 154 130 120 129 115 132 138 190 147 128 136 155 181 175 165 197 189 187 139 130 193 187 187 193 198 187 196 191 198 204
114 132 131 139 95 128 139 160 126 141 113 111 118 113 116 127 123 129 118 143 126 137 198 171 148 201 194 190 196 198 175 200 189 189 156 150 184 187 191 186 200 202 227
135 144 99 125 140 110 96 105 131 120 117 123 139 140 123 182 126 138 144 136 141 201 147 199 172 191 205 188 190 185 193 186 179 188 187 185 183 187 208 203 211 244 228
142 138 132 137 108 129 134 126 135 142 150 118 121 119 133 133 210 130 188 127 156 143 199 111 178 190 187 183 181 188 184 190 193 190 187 189 194 190 199 210 220 229 234
143 143 119 139 151 123 126 130 130 117 119 137 133 131 129 129 142 134 163 174 165 175 187 186 192 186 185 157 184 184 193 198 191 197 193 188 195 213 205 225 158 219 225
128 141 140 134 127 129 139 180 137 120 127 122 117 210 139 165 145 175 187 195 173 193 189 184 184 184 188 185 191 185 194 197 199 201 207 203 216 213 224 244 213 231 215
126 119 114 120 125 123 130 127 142 125 142 117 124 127 136 191 190 199 198 217 200 194 185 188 187 186 184 192 197 202 203 179 195 217 215 201 212 247 229 227 241 229 243
117 110 137 148 140 133 133 127 177 138 117 140 137 203 190 181 184 143 185 191 194 176 195 199 195 182 189 186 187 204 203 220 200 201 219 251 228 218 237 219 208 224 225
181 126 134 130 140 129 133 123 123 118 133 154 137 164 193 206 198 191 189 186 197 189 189 167 187 201 201 194 207 194 197 197 235 228 237 224 229 224 229 213 215 218 224
132 116 137 129 127 133 120 115 121 137 139 192 160 144 191 184 192 195 195 187 183 184 182 193 197 205 209 199 194 195 205 241 230 227 225 206 216 242 242 245 238 239 240
139 126 125 123 133 126 125 139 177 140 191 192 201 191 199 190 189 184 182 185 186 195 202 216 190 196 198 199 209 230 227 206 225 227 216 232 237 236 242 262 266 262 265
123 127 216 131 130 133 136 131 173 186 126 193 193 199 195 189 192 191 197 206 204 192 194 197 202 238 233 230 224 226 211 212 229 232 225 218 224 227 229 223 218 211 210
184 137 130 136 139 174 130 171 170 178 204 195 183 179 193 195 203 207 196 196 191 194 200 202 220 210 225 223 201 233 236 238 232 230 231 238 236 228 214 215 199 196 206
131 134 133 215 189 162 194 228 218 216 203 204 215 221 223 214 203 191 191 195 200 201 233 230 215 201 196 222 208 214 214 244 244 243 241 240 236 231 228 225 220 216 215
190 231 224 205 208 227 222 181 223 208 209 202 200 192 194 187 197 211 227 236 229 217 214 199 195 220 211 207 211 205 207 245 239 232 229 227 222 217 209 208 214 214 214
212 215 209 203 209 218 224 206 203 198 196 196 194 198 204 204 227 234 226 219 206 197 200 212 205 205 205 206 198 188 205 243 236 226 217 211 209 207 205 206 206 207 209
220 178 211 210 204 206 201 201 201 197 200 201 201 207 232 232 225 205 197 197 190 214 204 201 203 203 201 211 199 201 254 230 211 205 203 201 201 205 208 210 214 220 226
204 201 197 201 201 199 205 203 203 205 224 223 232 233 209 200 202 195 218 210 207 202 202 204 201 201 202 210 216 225 237 219 203 202 201 197 201 206 220 229 256 269 274
210 214 211 207 208 208 215 231 215 218 233 224 200 198 202 193 196 214 206 210 205 197 204 196 197 198 191 212 211 226 220 203 205 204 210 212 213 227 267 276 267 263 280
211 217 235 222 217 210 223 223 216 208 199 203 197 193 194 202 211 207 206 200 195 194 194 195 194 194 204 205 218 239 225 213 207 215 216 219 266 276 271 270 275 274 279

GFSSE_2pvu_pres_051.txt.gz
Presure
119 110 93 104 84 95 121 112 105 119 116 124 125 114 123 124 123 116 107 135 143 120 110 138 109 117 113 101 100 116 134 116 127 139 136 138 125 144 153 193 154 175 232
104 127 99 93 112 101 98 99 118 122 128 121 138 105 131 118 112 142 117 122 106 106 135 109 105 132 118 116 122 121 133 138 133 137 141 144 143 214 190 181 143 115 109
124 125 137 116 116 129 108 134 141 134 114 126 136 132 100 107 115 105 134 135 140 104 103 137 131 135 113 116 118 128 137 137 142 147 148 166 144 164 165 188 129 121 171
124 109 97 123 133 130 132 120 123 119 127 121 129 134 114 123 141 108 150 133 112 138 105 104 102 104 110 140 142 150 125 142 172 175 181 164 139 184 204 219 127 185 198
124 123 127 106 118 107 136 145 124 110 119 130 137 144 138 110 141 131 128 104 104 108 117 109 122 115 152 127 114 134 188 138 204 198 182 195 204 193 210 172 199 198 197
116 124 130 112 120 134 149 93 127 160 150 121 114 140 144 136 136 130 119 138 133 118 125 119 149 141 121 116 148 133 148 158 145 173 195 183 196 206 124 189 191 207 199
125 139 136 113 136 139 112 138 146 151 132 138 153 123 137 120 120 150 139 115 117 119 122 127 125 120 125 141 129 213 194 205 192 191 200 197 193 190 125 192 197 134 199
120 103 118 118 107 111 107 115 147 151 130 136 113 117 129 120 139 129 139 129 125 124 126 131 129 139 181 135 179 145 191 190 191 149 195 189 189 194 192 200 198 204 204
104 117 135 140 113 141 132 157 127 143 141 123 124 132 133 144 124 129 125 129 145 128 132 133 193 145 215 205 200 211 192 168 193 193 191 187 192 193 195 202 208 205 215
77 135 131 115 133 120 145 116 126 113 136 119 118 134 129 120 113 116 147 133 124 129 227 214 153 207 142 217 196 181 195 193 200 188 192 190 195 186 206 208 206 223 197
128 125 145 127 148 146 131 132 134 123 126 121 143 122 130 129 122 117 142 127 131 167 180 219 205 189 191 196 193 196 191 190 191 188 192 192 192 189 205 204 196 197 201
133 149 146 129 138 120 130 117 124 143 164 118 143 130 125 122 122 164 130 135 135 195 210 191 195 195 193 189 195 194 193 187 188 192 195 202 215 217 198 199 206 223 241
137 122 108 123 125 121 117 116 113 152 118 126 132 130 118 123 125 128 136 207 183 138 218 195 208 200 203 200 191 192 191 193 195 198 219 196 203 199 204 245 234 227 225
132 136 128 122 118 119 136 127 136 119 126 132 127 121 118 132 131 198 207 204 154 198 190 190 190 189 185 183 190 187 194 186 210 195 199 220 247 256 237 221 214 220 205
129 117 133 128 120 122 119 134 117 129 132 129 125 147 142 128 221 215 205 191 184 187 194 194 191 197 191 192 190 199 215 195 203 206 214 209 225 214 223 206 227 248 244
117 126 131 126 125 132 132 129 127 137 125 132 128 136 183 191 168 165 205 194 196 194 184 193 191 199 198 197 210 191 204 200 204 206 231 224 214 228 221 231 244 243 240
138 126 132 113 122 128 138 119 137 114 124 129 130 219 211 200 208 197 185 183 182 185 185 194 194 203 205 212 197 193 202 214 220 227 204 226 212 214 206 213 240 245 244
123 136 107 117 119 125 127 130 128 142 149 230 215 207 196 184 179 189 203 182 180 181 199 204 211 210 191 195 214 217 236 214 206 207 210 213 206 203 192 246 244 242 234
123 123 124 124 131 121 121 119 125 124 172 209 165 189 202 185 187 157 187 201 184 196 207 188 190 201 202 231 223 208 206 196 215 208 207 205 207 212 240 243 228 219 217
119 140 140 198 121 122 125 126 201 216 153 190 195 184 192 192 194 172 217 214 210 192 191 198 200 223 221 234 202 196 216 213 205 203 203 196 200 206 230 231 217 207 205
119 119 126 125 127 132 218 216 215 192 218 197 195 185 184 197 204 199 199 196 197 195 200 225 222 210 200 200 220 211 202 200 211 200 195 192 206 220 247 240 208 207 212
204 133 151 128 156 226 209 220 218 213 203 216 217 207 204 199 196 195 198 194 195 211 217 203 200 202 210 214 204 199 201 201 202 193 196 206 207 240 240 226 218 217 217
144 127 176 227 212 200 219 219 211 211 206 199 193 194 199 203 208 211 228 222 208 200 201 195 217 207 205 204 201 205 199 201 186 193 197 201 220 240 228 214 217 215 219
133 185 208 207 213 218 215 207 201 200 200 208 215 214 219 211 219 217 205 196 202 199 205 211 205 213 209 211 204 203 201 193 197 199 202 219 229 229 207 216 216 220 227
221 210 216 215 208 209 210 213 219 216 229 223 226 220 203 196 196 199 204 200 203 216 205 199 203 214 210 204 200 201 197 195 198 200 213 216 235 212 216 224 233 236 275
215 219 217 217 217 223 218 218 210 216 228 214 206 199 191 202 200 200 200 213 217 194 200 198 197 201 195 191 193 194 199 195 194 213 230 240 215 216 224 247 267 269 264

GFSSE_2pvu_pres_057.txt.gz
Presure
127 123 129 144 140 127 129 99 103 109 116 108 132 127 130 122 96 133 110 106 124 100 129 134 134 108 124 113 120 116 112 109 114 101 105 113 108 132 109 111 120 137 119
105 105 112 144 140 127 115 123 99 111 124 118 109 128 104 102 98 110 124 129 145 137 149 141 140 106 139 111 133 99 138 117 127 111 109 109 111 108 117 105 113 116 110
123 120 129 131 135 132 125 102 131 124 133 115 111 106 101 94 139 127 116 120 131 131 141 114 103 110 104 116 134 152 117 112 119 110 114 110 116 110 107 115 186 125 117
116 136 133 122 118 128 114 133 131 96 92 124 99 131 100 130 126 112 105 121 128 111 116 121 120 117 125 147 114 115 114 119 131 110 111 111 128 119 129 118 128 119 189
142 134 127 133 124 124 128 125 131 132 127 112 125 133 114 139 124 151 144 141 106 132 108 105 135 110 118 124 116 111 107 119 109 114 116 121 120 121 124 214 165 136 207
120 135 155 121 118 125 80 137 140 144 129 122 123 91 121 127 153 148 142 115 131 107 111 130 110 120 108 104 117 116 120 122 122 109 116 123 120 190 221 235 217 194 200
157 124 158 110 140 131 132 115 132 135 143 103 103 105 119 124 118 143 110 113 120 110 125 120 127 122 120 118 115 114 115 116 109 111 127 153 124 230 217 216 210 204 206
149 111 122 130 114 94 134 130 139 119 134 136 95 103 124 156 112 124 128 118 109 116 142 113 117 123 127 118 122 119 145 114 113 124 126 177 215 209 165 217 208 208 207
157 136 168 99 113 108 97 91 137 136 147 133 120 128 172 134 118 115 129 114 117 148 120 111 115 118 118 123 121 111 121 121 128 187 170 157 211 213 147 196 216 214 220
135 83 128 124 108 115 136 137 140 142 135 149 124 114 138 132 115 110 123 104 126 123 116 115 116 123 120 118 112 115 128 209 196 151 215 215 134 164 202 216 204 229 210
119 129 153 76 127 125 161 118 141 119 150 136 141 111 122 126 141 122 130 122 122 117 118 118 124 118 117 121 132 125 157 193 157 208 190 193 204 201 209 219 204 200 199
149 218 177 146 139 143 143 146 118 115 144 120 113 118 122 122 120 125 126 123 113 143 121 122 121 126 132 125 125 186 189 204 208 194 198 217 208 213 198 202 207 197 218
187 167 162 117 136 143 120 133 141 144 133 128 118 127 125 114 118 115 116 122 121 112 127 121 123 123 126 137 194 156 190 160 206 227 203 200 185 193 198 208 205 221 233
156 135 159 168 138 155 154 165 155 136 132 119 170 131 135 125 125 123 129 137 120 123 141 130 124 129 132 141 210 192 213 204 210 200 197 205 219 215 198 197 228 219 204
133 219 259 226 178 153 177 118 132 131 124 121 119 119 119 130 130 120 149 129 121 120 126 122 136 162 217 200 201 210 205 204 212 201 200 216 198 208 212 224 208 203 206
122 142 144 160 158 130 124 135 132 122 124 136 166 123 125 123 117 129 130 117 126 123 163 198 171 186 188 209 216 213 215 197 204 215 208 204 204 225 216 205 210 195 215
141 134 146 226 116 126 106 136 127 147 140 180 120 128 123 129 133 128 127 132 127 133 192 179 136 193 205 203 208 199 200 201 208 203 205 218 217 200 200 200 212 207 209
148 139 125 146 127 127 137 127 142 123 118 123 128 128 130 126 126 130 133 122 126 189 131 223 202 194 217 196 193 242 205 201 203 211 218 197 210 200 196 209 218 207 207
171 258 182 150 191 203 129 119 119 124 124 122 118 119 127 132 132 124 142 188 124 164 210 217 210 199 204 202 206 198 196 225 212 200 203 194 218 216 217 211 207 206 205
141 127 193 145 241 132 127 121 121 127 119 123 126 127 177 125 127 207 144 167 208 206 221 208 207 215 205 200 198 207 227 203 211 201 212 203 201 205 209 212 209 207 210
126 163 218 125 126 145 137 121 126 121 145 124 195 125 127 203 204 223 154 217 222 207 207 210 203 200 197 204 226 197 210 193 208 199 201 203 212 229 228 223 213 205 200
123 127 149 137 124 121 119 123 125 183 131 125 128 135 132 217 212 154 219 208 211 210 204 197 200 212 219 206 204 197 201 194 198 199 208 225 214 203 206 203 205 207 209
126 156 136 129 128 118 125 117 160 165 133 159 174 201 230 218 196 198 209 210 206 201 202 221 210 211 202 204 200 201 196 198 202 214 211 205 211 203 205 206 208 211 215
139 205 125 120 147 132 126 130 217 145 194 213 207 188 209 210 207 206 204 207 223 226 205 210 199 205 197 201 199 200 202 205 213 201 207 203 203 202 204 205 217 223 234
137 137 123 127 134 128 135 134 215 206 204 207 209 208 208 210 239 231 201 205 210 207 198 205 195 197 201 195 200 202 210 205 199 204 200 202 203 213 217 219 236 235 246
123 131 132 160 165 216 216 215 217 213 222 216 211 219 217 200 202 224 214 204 200 205 199 196 202 197 199 199 211 200 193 209 202 198 201 213 216 225 232 241 239 260 265